TimeCST,TemperatureF,Dew PointF,Humidity,Sea Level PressureIn,VisibilityMPH,Wind Direction,Wind SpeedMPH,Gust SpeedMPH,PrecipitationIn,Events,Conditions,WindDirDegrees,DateUTC
12:15 AM,48.2,14.0,25,29.81,10.0,North,10.4,-,N/A,,Mostly Cloudy,360,2012-11-11 06:15:00
12:35 AM,46.4,15.8,29,29.81,10.0,North,16.1,-,N/A,,Scattered Clouds,10,2012-11-11 06:35:00
12:55 AM,46.4,24.8,43,29.81,10.0,NNE,15.0,-,N/A,,Clear,20,2012-11-11 06:55:00
1:15 AM,44.6,26.6,49,29.80,10.0,NNE,16.1,-,N/A,,Clear,30,2012-11-11 07:15:00
1:35 AM,42.8,28.4,57,29.80,10.0,NNE,13.8,-,N/A,,Partly Cloudy,20,2012-11-11 07:35:00
1:55 AM,42.8,28.4,57,29.81,10.0,NNE,17.3,-,N/A,,Partly Cloudy,30,2012-11-11 07:55:00
2:15 AM,42.8,28.4,57,29.82,10.0,North,16.1,-,N/A,,Scattered Clouds,10,2012-11-11 08:15:00
2:35 AM,41.0,28.4,61,29.81,10.0,NNE,13.8,-,N/A,,Scattered Clouds,20,2012-11-11 08:35:00
2:55 AM,41.0,28.4,61,29.82,10.0,NNE,15.0,-,N/A,,Scattered Clouds,20,2012-11-11 08:55:00
3:15 AM,39.2,28.4,65,29.83,10.0,NNE,10.4,-,N/A,,Scattered Clouds,20,2012-11-11 09:15:00
3:35 AM,39.2,28.4,65,29.85,10.0,North,12.7,-,N/A,,Partly Cloudy,10,2012-11-11 09:35:00
3:55 AM,37.4,26.6,65,29.84,10.0,North,18.4,-,N/A,,Partly Cloudy,10,2012-11-11 09:55:00
4:15 AM,35.6,24.8,65,29.85,10.0,North,21.9,-,N/A,,Partly Cloudy,350,2012-11-11 10:15:00
4:35 AM,33.8,21.2,60,29.86,10.0,North,19.6,-,N/A,,Partly Cloudy,360,2012-11-11 10:35:00
4:55 AM,32.0,19.4,60,29.89,10.0,North,24.2,27.6,N/A,,Mostly Cloudy,360,2012-11-11 10:55:00
5:35 AM,30.2,17.6,60,29.90,10.0,North,25.3,32.2,N/A,,Mostly Cloudy,350,2012-11-11 11:35:00
5:55 AM,28.4,17.6,64,29.92,10.0,NNW,16.1,27.6,N/A,,Partly Cloudy,340,2012-11-11 11:55:00
6:15 AM,28.4,17.6,64,29.92,10.0,North,18.4,27.6,N/A,,Clear,350,2012-11-11 12:15:00
6:35 AM,26.6,15.8,64,29.92,10.0,North,18.4,23.0,N/A,,Clear,360,2012-11-11 12:35:00
6:55 AM,26.6,15.8,64,29.92,10.0,North,18.4,-,N/A,,Clear,350,2012-11-11 12:55:00
7:35 AM,26.6,15.8,64,29.95,10.0,NNW,15.0,-,N/A,,Clear,340,2012-11-11 13:35:00
8:15 AM,28.4,17.6,64,29.98,10.0,North,17.3,-,N/A,,Clear,350,2012-11-11 14:15:00
8:35 AM,28.4,17.6,64,29.99,10.0,North,20.7,25.3,N/A,,Clear,360,2012-11-11 14:35:00
9:35 AM,30.2,17.6,60,30.02,10.0,North,25.3,-,N/A,,Mostly Cloudy,350,2012-11-11 15:35:00
9:55 AM,30.2,17.6,60,30.04,10.0,North,24.2,27.6,N/A,,Overcast,350,2012-11-11 15:55:00
10:15 AM,30.2,15.8,55,30.05,10.0,North,24.2,29.9,N/A,,Overcast,10,2012-11-11 16:15:00
10:35 AM,32.0,15.8,51,30.05,10.0,North,23.0,-,N/A,,Overcast,360,2012-11-11 16:35:00
10:55 AM,32.0,14.0,48,30.06,10.0,North,21.9,28.8,N/A,,Overcast,360,2012-11-11 16:55:00
11:35 AM,33.8,15.8,48,30.06,10.0,NNE,12.7,-,N/A,,Partly Cloudy,20,2012-11-11 17:35:00
12:15 PM,35.6,15.8,44,30.06,10.0,NNE,13.8,18.4,N/A,,Clear,20,2012-11-11 18:15:00
12:35 PM,35.6,15.8,44,30.06,10.0,North,18.4,-,N/A,,Clear,360,2012-11-11 18:35:00
12:55 PM,37.4,15.8,41,30.06,10.0,North,13.8,20.7,N/A,,Clear,360,2012-11-11 18:55:00
1:15 PM,37.4,15.8,41,30.05,10.0,North,13.8,17.3,N/A,,Clear,360,2012-11-11 19:15:00
1:35 PM,39.2,17.6,42,30.05,10.0,NNW,16.1,21.9,N/A,,Clear,330,2012-11-11 19:35:00
1:55 PM,39.2,15.8,39,30.05,10.0,NW,13.8,20.7,N/A,,Clear,310,2012-11-11 19:55:00
2:15 PM,39.2,17.6,42,30.06,10.0,North,16.1,-,N/A,,Clear,360,2012-11-11 20:15:00
2:35 PM,39.2,15.8,39,30.06,10.0,NNW,13.8,23.0,N/A,,Clear,340,2012-11-11 20:35:00
2:55 PM,41.0,15.8,36,30.07,10.0,North,13.8,21.9,N/A,,Clear,10,2012-11-11 20:55:00
3:15 PM,42.8,15.8,34,30.08,10.0,North,13.8,18.4,N/A,,Clear,350,2012-11-11 21:15:00
3:35 PM,41.0,15.8,36,30.09,10.0,North,17.3,-,N/A,,Scattered Clouds,350,2012-11-11 21:35:00
3:55 PM,41.0,15.8,36,30.10,10.0,NNW,11.5,18.4,N/A,,Scattered Clouds,340,2012-11-11 21:55:00
4:15 PM,41.0,14.0,33,30.11,10.0,North,18.4,23.0,N/A,,Partly Cloudy,10,2012-11-11 22:15:00
4:35 PM,39.2,12.2,33,30.12,10.0,North,15.0,20.7,N/A,,Partly Cloudy,360,2012-11-11 22:35:00
4:55 PM,39.2,12.2,33,30.13,10.0,North,12.7,-,N/A,,Clear,350,2012-11-11 22:55:00
5:15 PM,39.2,12.2,33,30.14,10.0,North,9.2,-,N/A,,Scattered Clouds,350,2012-11-11 23:15:00
5:35 PM,37.4,10.4,33,30.15,10.0,North,6.9,-,N/A,,Mostly Cloudy,350,2012-11-11 23:35:00
5:55 PM,35.6,10.4,35,30.16,10.0,NNW,6.9,-,N/A,,Partly Cloudy,340,2012-11-11 23:55:00
6:15 PM,33.8,10.4,38,30.17,10.0,North,3.5,-,N/A,,Partly Cloudy,10,2012-11-12 00:15:00
6:35 PM,33.8,10.4,38,30.18,10.0,Calm,Calm,-,N/A,,Partly Cloudy,0,2012-11-12 00:35:00
6:55 PM,33.8,12.2,41,30.19,10.0,Calm,Calm,-,N/A,,Clear,0,2012-11-12 00:55:00
7:15 PM,32.0,8.6,38,30.20,10.0,Calm,Calm,-,N/A,,Clear,0,2012-11-12 01:15:00
7:35 PM,30.2,8.6,40,30.21,10.0,Calm,Calm,-,N/A,,Clear,0,2012-11-12 01:35:00
7:55 PM,28.4,6.8,40,30.21,10.0,Calm,Calm,-,N/A,,Clear,0,2012-11-12 01:55:00
8:15 PM,28.4,8.6,43,30.22,10.0,Calm,Calm,-,N/A,,Clear,0,2012-11-12 02:15:00
8:35 PM,28.4,8.6,43,30.24,10.0,Calm,Calm,-,N/A,,Clear,0,2012-11-12 02:35:00
8:55 PM,26.6,6.8,43,30.25,10.0,North,3.5,-,N/A,,Clear,10,2012-11-12 02:55:00
9:15 PM,24.8,6.8,46,30.24,10.0,Calm,Calm,-,N/A,,Partly Cloudy,0,2012-11-12 03:15:00
9:35 PM,24.8,8.6,50,30.25,10.0,Calm,Calm,-,N/A,,Scattered Clouds,0,2012-11-12 03:35:00
9:55 PM,24.8,6.8,46,30.26,10.0,Calm,Calm,-,N/A,,Scattered Clouds,0,2012-11-12 03:55:00
10:15 PM,24.8,10.4,54,30.27,10.0,Calm,Calm,-,N/A,,Scattered Clouds,0,2012-11-12 04:15:00
10:35 PM,23.0,6.8,50,30.27,8.0,West,3.5,-,N/A,,Scattered Clouds,260,2012-11-12 04:35:00
10:55 PM,23.0,8.6,54,30.27,10.0,SSW,4.6,-,N/A,,Partly Cloudy,210,2012-11-12 04:55:00
11:15 PM,23.0,8.6,54,30.27,10.0,Calm,Calm,-,N/A,,Scattered Clouds,0,2012-11-12 05:15:00
11:35 PM,23.0,8.6,54,30.27,10.0,Calm,Calm,-,N/A,,Partly Cloudy,0,2012-11-12 05:35:00
11:55 PM,21.2,6.8,54,30.28,10.0,West,5.8,-,N/A,,Clear,270,2012-11-12 05:55:00